www.pogodaiklimat.ru

Погода и климат >> Архив погоды >> Индия >> Телингана >> Низамабад


ПОГОДА в Низамабаде

  • Прогноз погоды в Низамабаде
  • Монитор погоды в Низамабаде

АРХИВ ПОГОДЫ в Низамабаде

Время (UTC), дата Ветер
(напр.,м/с)
 
Видим.   Явления Облачность Т
(С)
Тd
(С)
f
(%)
Тe
(С)
Тes
(С)
Комфортность P
(гПа)
Po
(гПа)
Тmin
(С)
Tmax
(С)
R
(мм)
R24
(мм)
S
(см)
00 12.08 штиль 0 4000 м {дождь} 8/3 600 м
[Sc Cs]
+24.8 +22.7 88 +33 +33 очень
душно
1003.6 961.1 7
03 12.08 ЮЗ 1 10 км 6/0
[Cs]
+25.8 +22.9 84 +34 +43 очень
душно
1004.8 962.5 +24.1 +32.5 7
06 12.08 штиль 0 10 км 6/4 600 м
[Cu Sc Ci fib]
+30.0 +23.7 69 +41 +57 опасность
перегрева
1004.1 962.3
09 12.08 ЮЗ 1 10 км 9/4 600 м
[Cu Sc Ac trans Ci fib]
+31.6 +23.2 61 +42 +49 опасность
перегрева
1001.5 960.1
12 12.08 штиль 0 10 км 9/3 600 м
[Cu Sc Cs]
+30.4 +23.5 67 +41 +43 опасность
перегрева
1000.7 959.2 +31.8
15 12.08 штиль 0 4000 м 9/3 600 м
[Sc Cs]
+28.0 +23.3 76 +38 +38 очень
душно
1002.7 960.7
00 13.08 штиль 0 4000 м 8/3 600 м
[Sc Cs]
+26.0 +23.1 84 +35 +35 очень
душно
1002.3 960.1
03 13.08 ЮЗ 1 10 км 10/3 600 м
[Sc Cs]
+26.6 +22.5 78 +35 +40 очень
душно
1004.2 962.0 +25.2 +31.8
06 13.08 ЮЗ 1 10 км 10/4 600 м
[Cu Sc Ac As Cs]
+28.0 +22.7 73 +37 +44 очень
душно
1004.5 962.5
09 13.08 ЮЗ 1 10 км 10/3 600 м
[Cu Sc Ac As]
+28.4 +23.5 75 +39 +43 очень
душно
1002.7 960.9
12 13.08 штиль 0 10 км 10/0
[Ac As]
+28.4 +23.8 76 +39 +40 очень
душно
1001.5 959.7 +28.6
15 13.08 штиль 0 4000 м 10/0
[Ac As]
+27.2 +24.0 83 +38 +38 очень
душно
1003.2 961.2
00 14.08 штиль 0 4000 м в посл. час гроза {дождь} 10/4 300 м
[Frnb Ac As]
+23.8 +23.2 96 +32 +32 очень
душно
1003.7 961.1 42
03 14.08 штиль 0 10 км {дождь} 10/4 600 м
[Sc Ac As]
+24.8 +23.6 93 +34 +35 очень
душно
1005.4 962.9 +22.2 +28.6 43
06 14.08 ЮЗ 1 10 км 10/3 600 м
[Cu Sc Ac As]
+27.6 +24.7 84 +39 +45 очень
душно
1004.7 962.7
09 14.08 ЮЗ 1 10 км 10/5 600 м
[Cu Sc Ac As Cs]
+30.2 +24.2 70 +42 +47 опасность
перегрева
1002.3 960.8
12 14.08 штиль 0 10 км 10/4 600 м
[Cu Sc Ac As Cs]
+28.0 +23.0 74 +37 +38 очень
душно
1001.9 959.9 +30.8
15 14.08 штиль 0 4000 м в посл. час дождь 10/3 600 м
[Sc Ac As Cs]
+26.4 +24.4 89 +37 +37 очень
душно
1004.2 962.0 0.7
00 15.08 штиль 0 4000 м слаб. морось {дождь} 10/4 300 м
[St Ac As]
+24.0 +23.1 95 +32 +32 очень
душно
1005.3 962.7 24
03 15.08 штиль 0 10 км 6/3 600 м
[Sc Cs]
+25.6 +22.9 85 +34 +40 очень
душно
1006.6 964.2 +23.4 +30.8 24
06 15.08 штиль 0 10 км 9/3 600 м
[Cu Sc Cs]
+29.4 +23.6 71 +40 +57 опасность
солнечного
удара
1006.0 964.2
09 15.08 ЮЗ 2 10 км 9/5 600 м
[Cu Sc Cs]
+30.6 +23.3 65 +41 +48 опасность
перегрева
1003.7 962.1
12 15.08 штиль 0 10 км {дождь} 10/5 600 м
[Cu Sc Ac trans Cs]
+29.6 +24.5 74 +42 +42 опасность
перегрева
1002.7 961.0 +31.4 0.4
15 15.08 штиль 0 4000 м 9/4 600 м
[Sc Cs]
+28.0 +25.2 85 +41 +41 опасность
перегрева
1004.6 962.6 0.4
00 16.08 штиль 0 4000 м 8/3 600 м
[Sc Cs]
+25.2 +22.2 83 +33 +33 очень
душно
1005.3 963.0 0.4
03 16.08 ЮЗ 2 10 км 3/0
[Ci fib]
+27.0 +21.9 74 +35 +42 очень
душно
1006.5 964.2 +24.8 +31.4 0.4
06 16.08 ЮЗ 2 10 км 8/4 600 м
[Cu Sc Ac trans Ci fib]
+30.0 +22.7 65 +40 +49 очень
душно
1005.8 964.0
09 16.08 З 2 10 км 8/4 600 м
[Cu Sc Ac trans Ci fib]
+31.2 +22.4 60 +41 +47 опасность
перегрева
1003.5 962.1
12 16.08 З 2 10 км 10/3 600 м
[Cu Sc Ac trans Cs]
+30.4 +23.1 65 +41 +41 опасность
перегрева
1001.8 960.3 +32.3
15 16.08 штиль 0 4000 м 9/3 600 м
[Cu Sc Ac trans Cs]
+28.8 +23.8 74 +39 +39 очень
душно
1003.5 961.6
00 17.08 штиль 0 4000 м 6/1 600 м
[Sc Ac trans Ci fib]
+25.6 +22.6 84 +34 +34 очень
душно
1004.4 962.1
03 17.08 штиль 0 10 км 4/0
[Ci fib]
+27.0 +21.9 74 +35 +44 очень
душно
1006.0 963.8 +24.8 +32.3
06 17.08 З 2 10 км 8/4 600 м
[Cu Sc Ac trans Ci fib]
+30.2 +20.9 58 +38 +47 очень
душно
1005.6 963.9
09 17.08 ЮЗ 1 10 км 8/4 600 м
[Cu Sc Ac trans Ci fib]
+31.6 +22.6 59 +41 +49 опасность
перегрева
1003.6 962.1
12 17.08 штиль 0 10 км 10/3 600 м
[Sc Cs]
+30.4 +22.5 63 +40 +41 очень
душно
1002.9 961.3 +32.0
15 17.08 штиль 0 4000 м 8/0
[Cs]
+28.6 +24.0 76 +40 +40 очень
душно
1004.4 962.5
00 18.08 штиль 0 4000 м 8/3 600 м
[Sc Ac trans Cs]
+26.4 +23.4 84 +36 +36 очень
душно
1004.9 962.7
03 18.08 З 2 10 км 8/3 600 м
[Sc Ac trans Cs]
+27.2 +22.4 75 +36 +39 очень
душно
1007.3 965.1 +25.8 +32.0
06 18.08 З 1 10 км 9/3 600 м
[Cu Sc Ac trans Cs]
+31.0 +20.4 53 +38 +47 очень
душно
1006.9 965.1
09 18.08 штиль 0 10 км 10/4 600 м
[Cu Sc Ac As Cs]
+29.4 +23.0 68 +39 +45 очень
душно
1005.1 963.3
12 18.08 штиль 0 10 км 10/3 600 м
[Cu Sc Cs]
+29.8 +22.8 66 +39 +41 очень
душно
1004.1 962.3 +30.8

 

Местоположение метеостанции Низамабад (Телингана, Индия): широта 18.67 долгота 78.10 высота над уровнем моря 381 м.

В архиве по умолчанию представлена погода в Низамабаде за последнюю неделю. Архивные данные за месяц целиком и за предыдущие месяцы, начиная с января 2011 года, Вы можете получить, выбрав интересующий диапазон дат из раскрывающегося списка и нажав кнопку "Ввод!".


*Определитесь, кто Вы:
робот инопланетянин человек

Внимание! Время в таблицах - всемирное. Для получения местного времени необходимо прибавить поправку, которая равна 5.5 ч.

Смотрите также архив погоды в соседних городах и на ближайших метеорологических станциях:

Погода в Медаке (Телингана, Индия) (71 км)
Погода в Нандеде (Махараштра, Индия) (93 км)
Погода в Бидаре (Карнатака, Индия) (103 км)
Погода в Адилабаде (Телингана, Индия) (118 км)
Погода в Аджере (Махараштра, Индия) (123 км)
Погода в Рамагундэме (Телингана, Индия) (141 км)
Погода в Хайдарабаде (Телингана, Индия) (141 км)
Погода в Парбхани (Махараштра, Индия) (143 км)
Погода в Ханамконде (Телингана, Индия) (171 км)
Погода в Вашиме (Махараштра, Индия) (191 км)

Пояснения к столбцам:

Ветер - указаны скорость ветра в м/с - средняя за 10 мин, порывы в срок и между сроками (в фигурных скобках) и направление, откуда дует ветер: С - северный, СВ - северо-восточный, В - восточный, ЮВ - юго-восточный, Ю - южный, ЮЗ - юго-западный, З - западный, СЗ - северо-западный.
Видимость - горизонтальная дальность видимости в метрах или километрах. При видимости от 1 до 10 км при отсутствии осадков обычно наблюдается дымка, при ухудшении видимости до 1 км и менее - туман. В сухую погоду видимость может ухудшаться дымом, пылью или мглою.
Явления - указаны атмосферные явления, наблюдавшиеся в срок или в последний час перед сроком; фигурными скобками обозначены явления, наблюдавшиеся между сроками (за 1-3 часа до срока); квадратными скобками обозначены град или гололедные отложения с указанием их диаметра в мм.
Облачность - указаны через наклонную черту общая и нижняя облачность в баллах и высота нижней границы облаков в метрах; квадратными скобками обозначены формы облаков: Ci - перистые, Cs - перисто-слоистые, Cc - перисто-кучевые, Ac - высококучевые, As - высокослоистые, Sc - слоисто-кучевые, Ns - слоисто-дождевые, Cu - кучевые, Cb - кучево-дождевые. Подробнее классификацию облаков см. в Атласе облаков (PDF).
T - Температура воздуха - температура, измеренная на высоте 2 м над землей.
Td - Температура точки росы - температура, при понижении до которой содержащийся в воздухе водяной пар достигнет насыщения.
f - Относительная влажность воздуха - влажноcть воздуха, измеренная на высоте 2 м над землей.
Te - Эффективная температура - температура, которую ощущает одетый по сезону человек в тени. Характеристика душности погоды. При расчете учитывается влияние влажности воздуха и скорости ветра на теплоощущения человека.
Tes - Эффективная температура на солнце - температура, которую ощущает человек, с поправкой на солнечный нагрев. Характеристика знойности погоды. Зависит от высоты солнца над горизонтом, облачности и скорости ветра. Ночью, в пасмурную погоду, а также при ветре 12 м/с и более поправка равна нулю.
P - Атмосферное давление - приведенное к уровню моря атмосферное давление.
Po - Атмосферное давление - измеренное на уровне метеостанции атмосферное давление.
Tmin - Минимальная температура - минимум температуры воздуха на высоте 2 м над землей.
Tmax - Максимальная температура - максимум температуры воздуха на высоте 2 м над землей.
R - Количество осадков - Количество выпавших осадков за период времени, мм. При наведении курсора мыши на число - период времени, за который выпало указанное количество осадков.
R24 - Количество осадков - Количество выпавших осадков за 24 часа, мм.
S - Снежный покров - Высота снежного покрова, см. При наведении курсора мыши на число - состояние снежного покрова и степень покрытия местности в баллах.